Simultaneous Nadir Overpasses (SNOs) Predictions

Prediction of SNOs between GOES-17 and NOAA-19 Satellite Orbit:

Table of predicted SNOs for the next 14.0 days since TLE Epoch: 8/30/2019
Index Date Time (GOES-17) GOES-17 Lat,Lon NOAA-19 Lat,Lon Distance(km) Time Diff (sec)
1 09/01/2019 14:31:55 -0.01,-137.20 0.75,-140.44 370.17 80
2 09/02/2019 14:20:16 -0.01,-137.20 0.08,-137.60 46.04 80
3 09/03/2019 14:05:58 -0.02,-137.19 -0.58,-134.76 277.98 80
4 09/06/2019 02:29:50 0.01,-137.17 -0.61,-139.77 297.39 80
5 09/07/2019 02:15:31 0.01,-137.15 0.04,-136.92 26.14 80
6 09/08/2019 02:03:54 0.01,-137.14 0.75,-134.09 349.19 80
7 09/10/2019 14:27:31 -0.01,-137.11 0.47,-139.04 220.66 80
8 09/11/2019 14:13:13 -0.01,-137.10 -0.20,-136.20 102.34 80
9 09/12/2019 14:01:34 -0.01,-137.08 -0.87,-133.36 425.19 80




NCC Satellite Simultaneous Nadir Overpasses (SNOs) Prediction Service
